Location: Arrien
(42.8963°N, 1.0429°E)
Time: 16:24:27
(UTC+00:00)

Cosmos 2151 - Pass Details

Date: 11 December 2025
Orbit: 559 x 575 km, 82.5° (Epoch: 16 January)

Event Time Altitude Azimuth Distance (km) Brightness Sun altitude
Rises 17:03:26 0° 354° (N) 2,788 6.2 -7.6°
Reaches altitude 10° 17:05:38 10° 356° (N) 1,888 5.3 -8.0°
Maximum altitude 17:09:47 70° 81° (E) 613 2.8 -8.7°
Drops below altitude 10° 17:13:55 10° 165° (SSE) 1,879 5.6 -9.4°
Sets 17:16:06 0° 168° (SSE) 2,773 6.5 -9.7°
